Time,TemperatureF,DewpointF,PressureIn,WindDirection,WindDirectionDegrees,WindSpeedMPH,WindSpeedGustMPH,Humidity,HourlyPrecipIn,Conditions,Clouds,dailyrainin,SoftwareType,DateUTC
2013-10-31 00:08:00,58.5,56.0,29.52,South,169,0.0,0.0,92,0.00,,,0.00,weatherlink.com 1.10,2013-10-31 05:08:00,
2013-10-31 00:23:00,58.2,56.0,29.52,South,169,0.0,0.0,92,0.00,,,0.00,weatherlink.com 1.10,2013-10-31 05:23:00,
2013-10-31 00:38:00,58.1,56.0,29.51,South,169,0.0,0.0,93,0.00,,,0.00,weatherlink.com 1.10,2013-10-31 05:38:00,
2013-10-31 00:53:00,58.2,56.0,29.50,South,169,0.0,0.0,93,0.00,,,0.00,weatherlink.com 1.10,2013-10-31 05:53:00,
2013-10-31 01:08:00,58.7,57.0,29.50,South,175,0.0,0.0,94,0.00,,,0.00,weatherlink.com 1.10,2013-10-31 06:08:00,
2013-10-31 01:23:00,59.4,57.0,29.50,South,175,0.0,0.0,92,0.00,,,0.00,weatherlink.com 1.10,2013-10-31 06:23:00,
2013-10-31 01:38:00,59.7,57.0,29.49,South,175,0.0,0.0,92,0.00,,,0.00,weatherlink.com 1.10,2013-10-31 06:38:00,
2013-10-31 01:53:00,59.9,57.0,29.49,South,175,0.0,0.0,91,0.00,,,0.00,weatherlink.com 1.10,2013-10-31 06:53:00,
2013-10-31 02:08:00,59.7,57.0,29.49,South,175,0.0,0.0,90,0.00,,,0.00,weatherlink.com 1.10,2013-10-31 07:08:00,
2013-10-31 02:23:00,59.6,57.0,29.48,South,175,0.0,0.0,92,0.00,,,0.00,weatherlink.com 1.10,2013-10-31 07:23:00,
2013-10-31 02:38:00,59.7,57.0,29.48,South,175,0.0,0.0,91,0.00,,,0.00,weatherlink.com 1.10,2013-10-31 07:38:00,
2013-10-31 02:54:00,59.7,57.0,29.47,South,175,0.0,0.0,90,0.00,,,0.00,weatherlink.com 1.10,2013-10-31 07:54:00,
2013-10-31 03:09:00,59.6,57.0,29.46,South,175,0.0,0.0,91,0.00,,,0.00,weatherlink.com 1.10,2013-10-31 08:09:00,
2013-10-31 03:24:00,59.5,57.0,29.46,South,175,0.0,0.0,90,0.00,,,0.00,weatherlink.com 1.10,2013-10-31 08:24:00,
2013-10-31 03:39:00,59.4,57.0,29.46,South,175,0.0,0.0,91,0.00,,,0.00,weatherlink.com 1.10,2013-10-31 08:39:00,
2013-10-31 03:54:00,59.5,57.0,29.46,South,175,0.0,0.0,91,0.00,,,0.00,weatherlink.com 1.10,2013-10-31 08:54:00,
2013-10-31 04:09:00,59.6,57.0,29.47,South,175,0.0,0.0,91,0.00,,,0.00,weatherlink.com 1.10,2013-10-31 09:09:00,
2013-10-31 04:24:00,59.4,57.0,29.47,South,175,0.0,0.0,91,0.00,,,0.00,weatherlink.com 1.10,2013-10-31 09:24:00,
2013-10-31 04:39:00,59.4,57.0,29.47,South,175,0.0,0.0,91,0.00,,,0.00,weatherlink.com 1.10,2013-10-31 09:39:00,
2013-10-31 04:54:00,59.6,57.0,29.46,South,178,0.0,0.0,91,0.00,,,0.00,weatherlink.com 1.10,2013-10-31 09:54:00,
2013-10-31 05:09:00,59.6,56.0,29.46,SSW,192,0.0,2.0,89,0.00,,,0.00,weatherlink.com 1.10,2013-10-31 10:09:00,
2013-10-31 05:24:00,59.8,57.0,29.46,SSW,192,0.0,1.0,90,0.00,,,0.00,weatherlink.com 1.10,2013-10-31 10:24:00,
2013-10-31 05:39:00,59.9,57.0,29.46,SSW,192,0.0,0.0,89,0.00,,,0.00,weatherlink.com 1.10,2013-10-31 10:39:00,
2013-10-31 05:54:00,59.9,57.0,29.45,South,175,3.0,3.0,89,0.00,,,0.00,weatherlink.com 1.10,2013-10-31 10:54:00,
2013-10-31 06:09:00,59.8,57.0,29.45,South,182,0.0,3.0,89,0.00,,,0.00,weatherlink.com 1.10,2013-10-31 11:09:00,
2013-10-31 06:24:00,59.8,56.0,29.44,South,178,0.0,0.0,88,0.00,,,0.00,weatherlink.com 1.10,2013-10-31 11:24:00,
2013-10-31 06:39:00,59.7,57.0,29.44,South,178,0.0,0.0,89,0.00,,,0.00,weatherlink.com 1.10,2013-10-31 11:39:00,
2013-10-31 06:54:00,59.6,56.0,29.43,South,178,0.0,0.0,89,0.00,,,0.00,weatherlink.com 1.10,2013-10-31 11:54:00,
2013-10-31 07:09:00,59.7,56.0,29.42,South,178,0.0,0.0,88,0.00,,,0.00,weatherlink.com 1.10,2013-10-31 12:09:00,
2013-10-31 07:24:00,59.8,56.0,29.43,SSW,194,0.0,1.0,88,0.00,,,0.00,weatherlink.com 1.10,2013-10-31 12:24:00,
2013-10-31 07:39:00,59.9,57.0,29.43,SSW,194,0.0,0.0,89,0.00,,,0.00,weatherlink.com 1.10,2013-10-31 12:39:00,
2013-10-31 07:54:00,60.0,57.0,29.43,SSW,192,0.0,0.0,89,0.00,,,0.00,weatherlink.com 1.10,2013-10-31 12:54:00,
2013-10-31 08:09:00,60.5,57.0,29.42,South,184,0.0,2.0,89,0.00,,,0.00,weatherlink.com 1.10,2013-10-31 13:09:00,
2013-10-31 08:24:00,61.0,58.0,29.43,South,184,0.0,0.0,89,0.00,,,0.00,weatherlink.com 1.10,2013-10-31 13:24:00,
2013-10-31 08:39:00,61.8,59.0,29.43,South,183,0.0,0.0,89,0.00,,,0.00,weatherlink.com 1.10,2013-10-31 13:39:00,
2013-10-31 08:54:00,62.5,59.0,29.42,SSE,157,0.0,2.0,88,0.00,,,0.00,weatherlink.com 1.10,2013-10-31 13:54:00,
2013-10-31 09:09:00,62.8,59.0,29.42,SW,220,0.0,2.0,88,0.00,,,0.00,weatherlink.com 1.10,2013-10-31 14:09:00,
2013-10-31 09:24:00,63.3,60.0,29.42,SSW,194,0.0,1.0,88,0.00,,,0.00,weatherlink.com 1.10,2013-10-31 14:24:00,
2013-10-31 09:39:00,63.8,60.0,29.42,South,186,0.0,1.0,88,0.00,,,0.00,weatherlink.com 1.10,2013-10-31 14:39:00,
2013-10-31 09:54:00,64.1,61.0,29.41,South,191,0.0,1.0,89,0.00,,,0.00,weatherlink.com 1.10,2013-10-31 14:54:00,
2013-10-31 10:09:00,64.6,61.0,29.41,SW,225,0.0,4.0,88,0.00,,,0.00,weatherlink.com 1.10,2013-10-31 15:09:00,
2013-10-31 10:24:00,65.4,62.0,29.41,South,191,0.0,2.0,88,0.00,,,0.00,weatherlink.com 1.10,2013-10-31 15:24:00,
2013-10-31 10:39:00,66.1,62.0,29.41,SW,225,0.0,3.0,87,0.00,,,0.00,weatherlink.com 1.10,2013-10-31 15:39:00,
2013-10-31 10:54:00,66.9,63.0,29.41,South,171,0.0,4.0,87,0.00,,,0.00,weatherlink.com 1.10,2013-10-31 15:54:00,
2013-10-31 11:09:00,67.5,63.0,29.41,West,261,0.0,3.0,86,0.00,,,0.00,weatherlink.com 1.10,2013-10-31 16:09:00,
2013-10-31 11:24:00,68.3,63.0,29.40,WSW,237,0.0,4.0,84,0.00,,,0.00,weatherlink.com 1.10,2013-10-31 16:24:00,
2013-10-31 11:40:00,69.1,64.0,29.40,WSW,249,2.0,3.0,83,0.00,,,0.00,weatherlink.com 1.10,2013-10-31 16:40:00,
2013-10-31 11:55:00,69.3,64.0,29.38,WNW,285,0.0,4.0,82,0.00,,,0.00,weatherlink.com 1.10,2013-10-31 16:55:00,
2013-10-31 12:10:00,69.8,64.0,29.37,South,175,0.0,6.0,82,0.00,,,0.00,weatherlink.com 1.10,2013-10-31 17:10:00,
2013-10-31 12:25:00,70.6,65.0,29.36,South,180,5.0,6.0,81,0.00,,,0.00,weatherlink.com 1.10,2013-10-31 17:25:00,
2013-10-31 12:40:00,70.7,65.0,29.36,West,259,0.0,2.0,81,0.00,,,0.00,weatherlink.com 1.10,2013-10-31 17:40:00,
2013-10-31 12:55:00,71.1,65.0,29.35,South,178,0.0,3.0,81,0.00,,,0.00,weatherlink.com 1.10,2013-10-31 17:55:00,
2013-10-31 13:10:00,71.5,65.0,29.34,West,279,0.0,2.0,80,0.00,,,0.00,weatherlink.com 1.10,2013-10-31 18:10:00,
2013-10-31 13:25:00,72.0,66.0,29.33,South,182,0.0,3.0,81,0.00,,,0.00,weatherlink.com 1.10,2013-10-31 18:25:00,
2013-10-31 13:40:00,72.2,65.0,29.33,WSW,250,0.0,2.0,79,0.00,,,0.00,weatherlink.com 1.10,2013-10-31 18:40:00,
2013-10-31 13:55:00,72.2,66.0,29.31,WSW,250,0.0,6.0,80,0.00,,,0.00,weatherlink.com 1.10,2013-10-31 18:55:00,
2013-10-31 14:10:00,72.3,65.0,29.30,SSE,159,1.0,6.0,79,0.00,,,0.00,weatherlink.com 1.10,2013-10-31 19:10:00,
2013-10-31 14:25:00,72.3,65.0,29.29,SSW,195,0.0,3.0,79,0.00,,,0.00,weatherlink.com 1.10,2013-10-31 19:25:00,
2013-10-31 14:40:00,72.2,66.0,29.28,South,183,0.0,8.0,80,0.00,,,0.00,weatherlink.com 1.10,2013-10-31 19:40:00,
2013-10-31 14:55:00,72.7,66.0,29.28,WSW,251,0.0,2.0,80,0.00,,,0.00,weatherlink.com 1.10,2013-10-31 19:55:00,
2013-10-31 15:10:00,72.4,66.0,29.28,SSW,196,0.0,4.0,80,0.00,,,0.00,weatherlink.com 1.10,2013-10-31 20:10:00,
2013-10-31 15:25:00,72.8,66.0,29.27,South,169,2.0,4.0,80,0.00,,,0.00,weatherlink.com 1.10,2013-10-31 20:25:00,
2013-10-31 15:40:00,73.5,66.0,29.27,WSW,254,0.0,3.0,78,0.00,,,0.00,weatherlink.com 1.10,2013-10-31 20:40:00,
2013-10-31 15:55:00,73.5,66.0,29.26,West,278,0.0,5.0,78,0.00,,,0.00,weatherlink.com 1.10,2013-10-31 20:55:00,
2013-10-31 16:10:00,73.4,66.0,29.26,West,281,3.0,7.0,78,0.00,,,0.00,weatherlink.com 1.10,2013-10-31 21:10:00,
2013-10-31 16:25:00,73.1,66.0,29.26,SSE,153,0.0,0.0,79,0.00,,,0.00,weatherlink.com 1.10,2013-10-31 21:25:00,
2013-10-31 16:40:00,72.6,66.0,29.26,SSE,165,3.0,13.0,80,0.00,,,0.00,weatherlink.com 1.10,2013-10-31 21:40:00,
2013-10-31 16:55:00,72.3,66.0,29.24,West,279,1.0,6.0,81,0.00,,,0.00,weatherlink.com 1.10,2013-10-31 21:55:00,
2013-10-31 17:10:00,72.0,66.0,29.24,South,189,0.0,3.0,81,0.00,,,0.00,weatherlink.com 1.10,2013-10-31 22:10:00,
2013-10-31 17:25:00,71.7,66.0,29.24,SE,136,0.0,2.0,82,0.00,,,0.00,weatherlink.com 1.10,2013-10-31 22:25:00,
2013-10-31 17:40:00,71.4,66.0,29.24,SSW,193,0.0,5.0,83,0.00,,,0.00,weatherlink.com 1.10,2013-10-31 22:40:00,
2013-10-31 17:55:00,70.7,66.0,29.24,ESE,123,2.0,4.0,84,0.00,,,0.00,weatherlink.com 1.10,2013-10-31 22:55:00,
2013-10-31 18:10:00,70.9,66.0,29.24,WSW,257,0.0,5.0,84,0.00,,,0.00,weatherlink.com 1.10,2013-10-31 23:10:00,
2013-10-31 18:25:00,70.7,66.0,29.24,SSW,195,0.0,7.0,84,0.00,,,0.00,weatherlink.com 1.10,2013-10-31 23:25:00,
2013-10-31 18:40:00,70.3,66.0,29.24,South,173,0.0,6.0,86,0.00,,,0.00,weatherlink.com 1.10,2013-10-31 23:40:00,
2013-10-31 18:55:00,69.7,66.0,29.25,SSW,198,0.0,3.0,87,0.00,,,0.00,weatherlink.com 1.10,2013-10-31 23:55:00,
2013-10-31 19:10:00,69.5,66.0,29.25,South,184,0.0,4.0,87,0.00,,,0.00,weatherlink.com 1.10,2013-11-01 00:10:00,
2013-10-31 19:25:00,69.6,66.0,29.24,South,171,0.0,4.0,87,0.00,,,0.00,weatherlink.com 1.10,2013-11-01 00:25:00,
2013-10-31 19:40:00,69.7,66.0,29.24,NNW,327,0.0,4.0,87,0.00,,,0.00,weatherlink.com 1.10,2013-11-01 00:40:00,
2013-10-31 19:55:00,69.7,66.0,29.24,SSW,195,0.0,5.0,88,0.00,,,0.00,weatherlink.com 1.10,2013-11-01 00:55:00,
2013-10-31 20:10:00,69.2,66.0,29.23,SSW,200,3.0,6.0,89,0.00,,,0.00,weatherlink.com 1.10,2013-11-01 01:10:00,
2013-10-31 20:25:00,68.8,66.0,29.22,SW,232,0.0,8.0,90,0.01,,,0.01,weatherlink.com 1.10,2013-11-01 01:25:00,
2013-10-31 20:40:00,68.7,66.0,29.21,SW,234,0.0,6.0,90,0.01,,,0.01,weatherlink.com 1.10,2013-11-01 01:40:00,
2013-10-31 20:55:00,68.6,66.0,29.21,SSW,200,0.0,9.0,91,0.01,,,0.01,weatherlink.com 1.10,2013-11-01 01:55:00,
2013-10-31 21:10:00,68.4,66.0,29.21,SE,138,0.0,5.0,92,0.01,,,0.01,weatherlink.com 1.10,2013-11-01 02:10:00,
2013-10-31 21:25:00,68.2,66.0,29.19,South,191,0.0,13.0,92,0.00,,,0.01,weatherlink.com 1.10,2013-11-01 02:25:00,
2013-10-31 21:41:00,68.2,66.0,29.19,SW,222,0.0,4.0,93,0.00,,,0.01,weatherlink.com 1.10,2013-11-01 02:41:00,
2013-10-31 21:56:00,68.1,66.0,29.18,WSW,242,0.0,3.0,94,0.02,,,0.03,weatherlink.com 1.10,2013-11-01 02:56:00,
2013-10-31 22:11:00,68.1,67.0,29.20,WSW,244,2.0,3.0,95,0.02,,,0.03,weatherlink.com 1.10,2013-11-01 03:11:00,
2013-10-31 22:26:00,67.9,66.0,29.19,WNW,298,2.0,7.0,94,0.02,,,0.03,weatherlink.com 1.10,2013-11-01 03:26:00,
2013-10-31 22:41:00,67.8,66.0,29.17,WSW,240,0.0,3.0,94,0.03,,,0.04,weatherlink.com 1.10,2013-11-01 03:41:00,
2013-10-31 22:56:00,68.0,67.0,29.19,WSW,252,2.0,4.0,95,0.01,,,0.04,weatherlink.com 1.10,2013-11-01 03:56:00,
2013-10-31 23:11:00,67.8,66.0,29.19,WSW,240,0.0,5.0,94,0.02,,,0.05,weatherlink.com 1.10,2013-11-01 04:11:00,
2013-10-31 23:26:00,67.7,66.0,29.18,SSW,202,1.0,4.0,95,0.03,,,0.06,weatherlink.com 1.10,2013-11-01 04:26:00,
2013-10-31 23:41:00,67.5,66.0,29.18,WSW,257,2.0,6.0,95,0.03,,,0.07,weatherlink.com 1.10,2013-11-01 04:41:00,
2013-10-31 23:56:00,67.3,66.0,29.16,SSW,205,0.0,3.0,95,0.05,,,0.09,weatherlink.com 1.10,2013-11-01 04:56:00,